Time,TemperatureF,DewpointF,PressureIn,WindDirection,WindDirectionDegrees,WindSpeedMPH,WindSpeedGustMPH,Humidity,HourlyPrecipIn,Conditions,Clouds,dailyrainin,SoftwareType,DateUTC
2013-11-25 00:01:00,33.3,-3.6,30.50,North,0,0.0,0.0,20,0.00,RA,FEW,0.00,WeatherDisplay:10.37,2013-11-25 05:01:00,
2013-11-25 00:02:00,33.3,-3.6,30.50,North,0,0.0,0.0,20,0.00,RA,FEW,0.00,WeatherDisplay:10.37,2013-11-25 05:02:00,
2013-11-25 00:04:00,33.3,-3.6,30.50,North,0,0.0,0.0,20,0.00,RA,FEW,0.00,WeatherDisplay:10.37,2013-11-25 05:04:00,
2013-11-25 00:09:00,33.3,-3.6,30.50,North,0,0.0,0.0,20,0.00,RA,FEW,0.00,WeatherDisplay:10.37,2013-11-25 05:09:00,
2013-11-25 00:10:00,33.3,-3.6,30.50,North,0,0.0,0.0,20,0.00,RA,FEW,0.00,WeatherDisplay:10.37,2013-11-25 05:10:00,
2013-11-25 00:16:00,33.1,-3.7,30.50,North,0,0.0,0.0,20,0.00,CLR,FEW,0.00,WeatherDisplay:10.37,2013-11-25 05:16:00,
2013-11-25 00:20:00,33.1,-3.7,30.50,North,0,0.0,0.0,20,0.00,CLR,FEW,0.00,WeatherDisplay:10.37,2013-11-25 05:20:00,
2013-11-25 00:25:00,32.9,-3.9,30.50,North,0,0.0,0.0,20,0.00,CLR,FEW,0.00,WeatherDisplay:10.37,2013-11-25 05:25:00,
2013-11-25 00:30:00,32.7,-4.0,30.50,North,0,0.0,0.0,20,0.00,CLR,FEW,0.00,WeatherDisplay:10.37,2013-11-25 05:30:00,
2013-11-25 00:35:00,32.7,-4.0,30.50,North,0,0.0,0.0,20,0.00,CLR,FEW,0.00,WeatherDisplay:10.37,2013-11-25 05:35:00,
2013-11-25 00:40:00,32.7,-4.0,30.50,North,0,0.0,0.0,20,0.00,CLR,FEW,0.00,WeatherDisplay:10.37,2013-11-25 05:40:00,
2013-11-25 00:45:00,32.5,-4.2,30.50,North,0,0.0,0.0,20,0.00,CLR,FEW,0.00,WeatherDisplay:10.37,2013-11-25 05:45:00,
2013-11-25 00:50:00,32.4,-4.3,30.50,North,0,0.0,0.0,20,0.00,CLR,FEW,0.00,WeatherDisplay:10.37,2013-11-25 05:50:00,
2013-11-25 00:55:00,32.2,-4.5,30.50,North,0,0.0,0.0,20,0.00,CLR,FEW,0.00,WeatherDisplay:10.37,2013-11-25 05:55:00,
2013-11-25 01:00:00,32.0,-4.6,30.50,North,0,0.0,0.0,20,0.00,CLR,FEW,0.00,WeatherDisplay:10.37,2013-11-25 06:00:00,
2013-11-25 01:05:00,31.8,-4.8,30.50,North,0,0.0,0.0,20,0.00,CLR,FEW,0.00,WeatherDisplay:10.37,2013-11-25 06:05:00,
2013-11-25 01:10:00,31.8,-4.8,30.50,North,0,0.0,0.0,20,0.00,CLR,FEW,0.00,WeatherDisplay:10.37,2013-11-25 06:10:00,
2013-11-25 01:15:00,31.5,-5.1,30.50,North,0,0.0,0.0,20,0.00,CLR,FEW,0.00,WeatherDisplay:10.37,2013-11-25 06:15:00,
2013-11-25 01:20:00,31.3,-5.2,30.50,North,0,0.0,0.0,20,0.00,CLR,FEW,0.00,WeatherDisplay:10.37,2013-11-25 06:20:00,
2013-11-25 01:25:00,31.3,-5.2,30.50,North,0,0.0,0.0,20,0.00,CLR,FEW,0.00,WeatherDisplay:10.37,2013-11-25 06:25:00,
2013-11-25 01:30:00,31.1,-5.4,30.50,North,0,0.0,0.0,20,0.00,CLR,FEW,0.00,WeatherDisplay:10.37,2013-11-25 06:30:00,
2013-11-25 01:35:00,30.9,-5.5,30.50,North,0,0.0,0.0,20,0.00,CLR,FEW,0.00,WeatherDisplay:10.37,2013-11-25 06:35:00,
2013-11-25 01:40:00,30.7,-5.7,30.50,North,0,0.0,0.0,20,0.00,CLR,FEW,0.00,WeatherDisplay:10.37,2013-11-25 06:40:00,
2013-11-25 01:45:00,30.6,-5.8,30.50,North,0,0.0,0.0,20,0.00,CLR,FEW,0.00,WeatherDisplay:10.37,2013-11-25 06:45:00,
2013-11-25 01:50:00,30.4,-6.0,30.50,North,0,0.0,0.0,20,0.00,CLR,FEW,0.00,WeatherDisplay:10.37,2013-11-25 06:50:00,
2013-11-25 01:55:00,30.2,-6.1,30.50,North,0,0.0,0.0,20,0.00,CLR,FEW,0.00,WeatherDisplay:10.37,2013-11-25 06:55:00,
2013-11-25 02:00:00,30.2,-6.1,30.50,North,0,0.0,0.0,20,0.00,CLR,FEW,0.00,WeatherDisplay:10.37,2013-11-25 07:00:00,
2013-11-25 02:05:00,30.2,-6.1,30.50,North,0,0.0,0.0,20,0.00,CLR,FEW,0.00,WeatherDisplay:10.37,2013-11-25 07:05:00,
2013-11-25 02:10:00,30.2,-6.1,30.50,North,0,0.0,0.0,20,0.00,CLR,FEW,0.00,WeatherDisplay:10.37,2013-11-25 07:10:00,
2013-11-25 02:15:00,30.2,-6.1,30.50,North,0,0.0,0.0,20,0.00,CLR,FEW,0.00,WeatherDisplay:10.37,2013-11-25 07:15:00,
2013-11-25 02:20:00,30.2,-6.1,30.50,North,0,0.0,0.0,20,0.00,CLR,FEW,0.00,WeatherDisplay:10.37,2013-11-25 07:20:00,
2013-11-25 02:25:00,30.2,-6.1,30.50,North,0,0.0,0.0,20,0.00,CLR,FEW,0.00,WeatherDisplay:10.37,2013-11-25 07:25:00,
2013-11-25 02:30:00,30.4,-6.0,30.50,North,0,0.0,0.0,20,0.00,CLR,FEW,0.00,WeatherDisplay:10.37,2013-11-25 07:30:00,
2013-11-25 02:35:00,30.6,-5.8,30.50,North,0,0.0,0.0,20,0.00,CLR,FEW,0.00,WeatherDisplay:10.37,2013-11-25 07:35:00,
2013-11-25 02:40:00,30.6,-5.8,30.50,North,0,0.0,0.0,20,0.00,CLR,FEW,0.00,WeatherDisplay:10.37,2013-11-25 07:40:00,
2013-11-25 02:45:00,30.7,-5.7,30.50,North,0,0.0,0.0,20,0.00,CLR,FEW,0.00,WeatherDisplay:10.37,2013-11-25 07:45:00,
2013-11-25 02:50:00,31.1,-5.4,30.50,North,0,0.0,0.0,20,0.00,CLR,FEW,0.00,WeatherDisplay:10.37,2013-11-25 07:50:00,
2013-11-25 02:55:00,31.1,-5.4,30.50,North,0,0.0,0.0,20,0.00,CLR,FEW,0.00,WeatherDisplay:10.37,2013-11-25 07:55:00,
2013-11-25 03:00:00,31.1,-5.4,30.50,North,0,0.0,0.0,20,0.00,CLR,FEW,0.00,WeatherDisplay:10.37,2013-11-25 08:00:00,
2013-11-25 03:05:00,31.1,-5.4,30.50,North,0,0.0,0.0,20,0.00,CLR,FEW,0.00,WeatherDisplay:10.37,2013-11-25 08:05:00,
2013-11-25 03:10:00,31.1,-5.4,30.50,North,0,0.0,0.0,20,0.00,CLR,FEW,0.00,WeatherDisplay:10.37,2013-11-25 08:10:00,
2013-11-25 03:15:00,31.1,-5.4,30.50,North,0,0.0,0.0,20,0.00,CLR,FEW,0.00,WeatherDisplay:10.37,2013-11-25 08:15:00,
2013-11-25 03:20:00,31.1,-5.4,30.50,North,0,0.0,0.0,20,0.00,CLR,FEW,0.00,WeatherDisplay:10.37,2013-11-25 08:20:00,
2013-11-25 03:25:00,31.1,-5.4,30.50,North,0,0.0,0.0,20,0.00,CLR,FEW,0.00,WeatherDisplay:10.37,2013-11-25 08:25:00,
2013-11-25 03:30:00,31.1,-5.4,30.50,North,0,0.0,0.0,20,0.00,CLR,FEW,0.00,WeatherDisplay:10.37,2013-11-25 08:30:00,
2013-11-25 03:35:00,31.1,-5.4,30.50,North,0,0.0,0.0,20,0.00,CLR,FEW,0.00,WeatherDisplay:10.37,2013-11-25 08:35:00,
2013-11-25 03:40:00,31.1,-5.4,30.50,North,0,0.0,0.0,20,0.00,CLR,FEW,0.00,WeatherDisplay:10.37,2013-11-25 08:40:00,
2013-11-25 03:45:00,31.1,-5.4,30.50,North,0,0.0,0.0,20,0.00,CLR,FEW,0.00,WeatherDisplay:10.37,2013-11-25 08:45:00,
2013-11-25 03:50:00,31.1,-5.4,30.50,North,0,0.0,0.0,20,0.00,CLR,FEW,0.00,WeatherDisplay:10.37,2013-11-25 08:50:00,
2013-11-25 03:55:00,31.1,-5.4,30.50,North,0,0.0,0.0,20,0.00,CLR,FEW,0.00,WeatherDisplay:10.37,2013-11-25 08:55:00,
2013-11-25 04:00:00,31.1,-5.4,30.50,North,0,0.0,0.0,20,0.00,CLR,FEW,0.00,WeatherDisplay:10.37,2013-11-25 09:00:00,
2013-11-25 04:05:00,31.1,-5.4,30.50,North,0,0.0,0.0,20,0.00,CLR,FEW,0.00,WeatherDisplay:10.37,2013-11-25 09:05:00,
2013-11-25 04:10:00,30.9,-5.5,30.50,North,0,0.0,0.0,20,0.00,CLR,FEW,0.00,WeatherDisplay:10.37,2013-11-25 09:10:00,
2013-11-25 04:15:00,30.9,-5.5,30.50,North,0,0.0,0.0,20,0.00,CLR,FEW,0.00,WeatherDisplay:10.37,2013-11-25 09:15:00,
2013-11-25 04:20:00,30.9,-5.5,30.50,North,0,0.0,0.0,20,0.00,CLR,FEW,0.00,WeatherDisplay:10.37,2013-11-25 09:20:00,
2013-11-25 04:25:00,30.7,-5.7,30.50,North,0,0.0,0.0,20,0.00,CLR,FEW,0.00,WeatherDisplay:10.37,2013-11-25 09:25:00,
2013-11-25 04:30:00,30.7,-5.7,30.50,North,0,0.0,0.0,20,0.00,CLR,FEW,0.00,WeatherDisplay:10.37,2013-11-25 09:30:00,
2013-11-25 04:35:00,30.7,-5.7,30.50,North,0,0.0,0.0,20,0.00,CLR,FEW,0.00,WeatherDisplay:10.37,2013-11-25 09:35:00,
2013-11-25 04:40:00,30.6,-5.8,30.50,North,0,0.0,0.0,20,0.00,CLR,FEW,0.00,WeatherDisplay:10.37,2013-11-25 09:40:00,
2013-11-25 04:45:00,30.4,-8.2,30.50,North,0,0.0,0.0,18,0.00,CLR,FEW,0.00,WeatherDisplay:10.37,2013-11-25 09:45:00,
2013-11-25 04:50:00,30.4,-6.0,30.50,North,0,0.0,0.0,20,0.00,CLR,FEW,0.00,WeatherDisplay:10.37,2013-11-25 09:50:00,
2013-11-25 04:55:00,30.4,-8.2,30.50,North,0,0.0,0.0,18,0.00,CLR,FEW,0.00,WeatherDisplay:10.37,2013-11-25 09:55:00,
2013-11-25 05:00:00,30.4,-8.2,30.50,North,0,0.0,0.0,18,0.00,CLR,FEW,0.00,WeatherDisplay:10.37,2013-11-25 10:00:00,
2013-11-25 05:05:00,30.4,-8.2,30.50,North,0,0.0,0.0,18,0.00,CLR,FEW,0.00,WeatherDisplay:10.37,2013-11-25 10:05:00,
2013-11-25 05:10:00,30.2,-8.3,30.50,North,0,0.0,0.0,18,0.00,CLR,FEW,0.00,WeatherDisplay:10.37,2013-11-25 10:10:00,
2013-11-25 05:15:00,30.2,-8.3,30.50,North,0,0.0,0.0,18,0.00,CLR,FEW,0.00,WeatherDisplay:10.37,2013-11-25 10:15:00,
2013-11-25 05:20:00,30.2,-8.3,30.50,North,0,0.0,0.0,18,0.00,CLR,FEW,0.00,WeatherDisplay:10.37,2013-11-25 10:20:00,
2013-11-25 05:25:00,30.0,-8.5,30.50,North,0,0.0,0.0,18,0.00,CLR,FEW,0.00,WeatherDisplay:10.37,2013-11-25 10:25:00,
2013-11-25 05:30:00,30.0,-8.5,30.50,North,0,0.0,0.0,18,0.00,CLR,FEW,0.00,WeatherDisplay:10.37,2013-11-25 10:30:00,
2013-11-25 05:35:00,30.0,-8.5,30.50,North,0,0.0,0.0,18,0.00,CLR,FEW,0.00,WeatherDisplay:10.37,2013-11-25 10:35:00,
2013-11-25 05:40:00,30.0,-8.5,30.50,North,0,0.0,0.0,18,0.00,CLR,FEW,0.00,WeatherDisplay:10.37,2013-11-25 10:40:00,
2013-11-25 05:45:00,29.8,-8.6,30.50,North,0,0.0,0.0,18,0.00,CLR,FEW,0.00,WeatherDisplay:10.37,2013-11-25 10:45:00,
2013-11-25 05:50:00,29.8,-8.6,30.50,North,0,0.0,0.0,18,0.00,CLR,FEW,0.00,WeatherDisplay:10.37,2013-11-25 10:50:00,
2013-11-25 05:55:00,29.8,-8.6,30.50,North,0,0.0,0.0,18,0.00,CLR,FEW,0.00,WeatherDisplay:10.37,2013-11-25 10:55:00,
2013-11-25 06:00:00,29.7,-8.8,30.50,North,0,0.0,0.0,18,0.00,CLR,FEW,0.00,WeatherDisplay:10.37,2013-11-25 11:00:00,
2013-11-25 06:05:00,29.7,-8.8,30.50,North,0,0.0,0.0,18,0.00,CLR,FEW,0.00,WeatherDisplay:10.37,2013-11-25 11:05:00,
2013-11-25 06:10:00,29.8,-8.6,30.50,North,0,0.0,0.0,18,0.00,CLR,FEW,0.00,WeatherDisplay:10.37,2013-11-25 11:10:00,
2013-11-25 06:15:00,29.7,-8.8,30.50,North,0,0.0,0.0,18,0.00,CLR,FEW,0.00,WeatherDisplay:10.37,2013-11-25 11:15:00,
2013-11-25 06:20:00,29.7,-8.8,30.50,North,0,0.0,0.0,18,0.00,CLR,FEW,0.00,WeatherDisplay:10.37,2013-11-25 11:20:00,
2013-11-25 06:25:00,29.7,-8.8,30.50,North,0,0.0,0.0,18,0.00,CLR,FEW,0.00,WeatherDisplay:10.37,2013-11-25 11:25:00,
2013-11-25 06:30:00,29.7,-8.8,30.53,North,0,0.0,0.0,18,0.00,CLR,FEW,0.00,WeatherDisplay:10.37,2013-11-25 11:30:00,
2013-11-25 06:35:00,29.7,-8.8,30.53,North,0,0.0,0.0,18,0.00,CLR,FEW,0.00,WeatherDisplay:10.37,2013-11-25 11:35:00,
2013-11-25 06:40:00,29.5,-8.9,30.53,North,0,0.0,0.0,18,0.00,CLR,FEW,0.00,WeatherDisplay:10.37,2013-11-25 11:40:00,
2013-11-25 06:45:00,29.5,-8.9,30.53,North,0,0.0,0.0,18,0.00,CLR,FEW,0.00,WeatherDisplay:10.37,2013-11-25 11:45:00,
2013-11-25 06:50:00,29.7,-8.8,30.53,North,0,0.0,0.0,18,0.00,CLR,FEW,0.00,WeatherDisplay:10.37,2013-11-25 11:50:00,
2013-11-25 06:55:00,29.7,-8.8,30.53,North,0,0.0,0.0,18,0.00,CLR,FEW,0.00,WeatherDisplay:10.37,2013-11-25 11:55:00,
2013-11-25 07:00:00,29.5,-8.9,30.53,North,0,0.0,0.0,18,0.00,CLR,FEW,0.00,WeatherDisplay:10.37,2013-11-25 12:00:00,
2013-11-25 07:05:00,29.5,-8.9,30.53,North,0,0.0,0.0,18,0.00,CLR,FEW,0.00,WeatherDisplay:10.37,2013-11-25 12:05:00,
2013-11-25 07:10:00,29.5,-8.9,30.53,North,0,0.0,0.0,18,0.00,CLR,FEW,0.00,WeatherDisplay:10.37,2013-11-25 12:10:00,
2013-11-25 07:15:00,29.5,-8.9,30.53,North,0,0.0,0.0,18,0.00,CLR,FEW,0.00,WeatherDisplay:10.37,2013-11-25 12:15:00,
2013-11-25 07:20:00,29.5,-8.9,30.53,North,0,0.0,0.0,18,0.00,CLR,FEW,0.00,WeatherDisplay:10.37,2013-11-25 12:20:00,
2013-11-25 07:25:00,29.7,-8.8,30.53,North,0,0.0,0.0,18,0.00,CLR,FEW,0.00,WeatherDisplay:10.37,2013-11-25 12:25:00,
2013-11-25 07:30:00,29.8,-8.6,30.53,North,0,0.0,0.0,18,0.00,CLR,FEW,0.00,WeatherDisplay:10.37,2013-11-25 12:30:00,
2013-11-25 07:35:00,30.0,-8.5,30.53,North,0,0.0,0.0,18,0.00,CLR,FEW,0.00,WeatherDisplay:10.37,2013-11-25 12:35:00,
2013-11-25 07:40:00,30.4,-6.0,30.53,North,0,0.0,0.0,20,0.00,CLR,FEW,0.00,WeatherDisplay:10.37,2013-11-25 12:40:00,
2013-11-25 07:45:00,30.6,-5.8,30.53,North,0,0.0,0.0,20,0.00,CLR,FEW,0.00,WeatherDisplay:10.37,2013-11-25 12:45:00,
2013-11-25 07:50:00,30.7,-5.7,30.53,North,0,0.0,0.0,20,0.00,CLR,FEW,0.00,WeatherDisplay:10.37,2013-11-25 12:50:00,
2013-11-25 07:55:00,30.9,-5.5,30.53,North,0,0.0,0.0,20,0.00,CLR,FEW,0.00,WeatherDisplay:10.37,2013-11-25 12:55:00,
2013-11-25 08:00:00,31.1,-5.4,30.53,North,0,0.0,0.0,20,0.00,CLR,FEW,0.00,WeatherDisplay:10.37,2013-11-25 13:00:00,
2013-11-25 08:05:00,31.5,-5.1,30.53,North,0,0.0,0.0,20,0.00,CLR,FEW,0.00,WeatherDisplay:10.37,2013-11-25 13:05:00,
2013-11-25 08:10:00,32.0,-4.6,30.53,North,0,0.0,0.0,20,0.00,CLR,FEW,0.00,WeatherDisplay:10.37,2013-11-25 13:10:00,
2013-11-25 08:15:00,32.4,-4.3,30.56,North,0,0.0,0.0,20,0.00,CLR,FEW,0.00,WeatherDisplay:10.37,2013-11-25 13:15:00,
2013-11-25 08:20:00,32.5,-4.2,30.56,North,0,0.0,0.0,20,0.00,CLR,FEW,0.00,WeatherDisplay:10.37,2013-11-25 13:20:00,
2013-11-25 08:25:00,32.9,-3.9,30.56,North,0,0.0,0.0,20,0.00,CLR,FEW,0.00,WeatherDisplay:10.37,2013-11-25 13:25:00,
2013-11-25 08:30:00,33.3,-3.6,30.56,North,0,0.0,0.0,20,0.00,CLR,FEW,0.00,WeatherDisplay:10.37,2013-11-25 13:30:00,
2013-11-25 08:35:00,33.6,-3.3,30.56,North,0,0.0,0.0,20,0.00,CLR,FEW,0.00,WeatherDisplay:10.37,2013-11-25 13:35:00,
2013-11-25 08:40:00,34.2,-2.8,30.56,North,0,0.0,0.0,20,0.00,CLR,FEW,0.00,WeatherDisplay:10.37,2013-11-25 13:40:00,
2013-11-25 08:45:00,34.5,-2.5,30.56,North,0,0.0,0.0,20,0.00,CLR,FEW,0.00,WeatherDisplay:10.37,2013-11-25 13:45:00,
2013-11-25 08:50:00,35.1,-2.1,30.56,North,0,0.0,0.0,20,0.00,CLR,FEW,0.00,WeatherDisplay:10.37,2013-11-25 13:50:00,
2013-11-25 08:55:00,35.4,-1.8,30.56,North,0,0.0,0.0,20,0.00,CLR,FEW,0.00,WeatherDisplay:10.37,2013-11-25 13:55:00,
2013-11-25 09:00:00,36.3,-2.1,30.56,North,0,0.0,0.0,19,0.00,CLR,FEW,0.00,WeatherDisplay:10.37,2013-11-25 14:00:00,
2013-11-25 09:05:00,36.9,-1.6,30.56,North,0,0.0,0.0,19,0.00,CLR,FEW,0.00,WeatherDisplay:10.37,2013-11-25 14:05:00,
2013-11-25 09:10:00,37.0,-1.5,30.56,North,0,0.0,0.0,19,0.00,CLR,FEW,0.00,WeatherDisplay:10.37,2013-11-25 14:10:00,
2013-11-25 09:15:00,37.4,-1.2,30.56,North,0,0.0,0.0,19,0.00,CLR,FEW,0.00,WeatherDisplay:10.37,2013-11-25 14:15:00,
2013-11-25 09:20:00,37.9,-0.7,30.56,North,0,0.0,0.0,19,0.00,CLR,FEW,0.00,WeatherDisplay:10.37,2013-11-25 14:20:00,
2013-11-25 09:25:00,38.5,-0.3,30.56,North,0,0.0,0.0,19,0.00,CLR,FEW,0.00,WeatherDisplay:10.37,2013-11-25 14:25:00,
2013-11-25 09:30:00,38.1,-0.6,30.56,North,0,0.0,0.0,19,0.00,CLR,FEW,0.00,WeatherDisplay:10.37,2013-11-25 14:30:00,
2013-11-25 09:35:00,38.3,-0.4,30.56,North,0,0.0,0.0,19,0.00,CLR,FEW,0.00,WeatherDisplay:10.37,2013-11-25 14:35:00,
2013-11-25 09:40:00,38.3,-0.4,30.56,North,0,0.0,0.0,19,0.00,CLR,FEW,0.00,WeatherDisplay:10.37,2013-11-25 14:40:00,
2013-11-25 09:45:00,38.7,-0.1,30.56,North,0,0.0,0.0,19,0.00,CLR,FEW,0.00,WeatherDisplay:10.37,2013-11-25 14:45:00,
2013-11-25 09:50:00,39.2,-0.8,30.56,North,0,0.0,0.0,18,0.00,CLR,FEW,0.00,WeatherDisplay:10.37,2013-11-25 14:50:00,
2013-11-25 09:55:00,39.7,-0.4,30.56,North,0,0.0,0.0,18,0.00,CLR,FEW,0.00,WeatherDisplay:10.37,2013-11-25 14:55:00,
2013-11-25 10:00:00,39.4,-0.7,30.56,North,0,0.0,0.0,18,0.00,CLR,FEW,0.00,WeatherDisplay:10.37,2013-11-25 15:00:00,
2013-11-25 10:05:00,39.2,-0.8,30.56,North,0,0.0,0.0,18,0.00,CLR,FEW,0.00,WeatherDisplay:10.37,2013-11-25 15:05:00,
2013-11-25 10:10:00,39.9,-0.2,30.56,North,0,0.0,0.0,18,0.00,CLR,FEW,0.00,WeatherDisplay:10.37,2013-11-25 15:10:00,
2013-11-25 10:15:00,39.7,-0.4,30.56,North,0,0.0,0.0,18,0.00,CLR,FEW,0.00,WeatherDisplay:10.37,2013-11-25 15:15:00,
2013-11-25 10:20:00,39.4,-0.7,30.56,North,0,0.0,0.0,18,0.00,CLR,FEW,0.00,WeatherDisplay:10.37,2013-11-25 15:20:00,
2013-11-25 10:25:00,39.2,-0.8,30.56,North,0,0.0,0.0,18,0.00,CLR,FEW,0.00,WeatherDisplay:10.37,2013-11-25 15:25:00,
2013-11-25 10:30:00,39.4,-0.7,30.56,North,0,0.0,0.0,18,0.00,CLR,FEW,0.00,WeatherDisplay:10.37,2013-11-25 15:30:00,
2013-11-25 10:35:00,39.7,-0.4,30.56,North,0,0.0,0.0,18,0.00,CLR,FEW,0.00,WeatherDisplay:10.37,2013-11-25 15:35:00,
2013-11-25 10:40:00,39.9,-0.2,30.56,North,0,0.0,0.0,18,0.00,CLR,FEW,0.00,WeatherDisplay:10.37,2013-11-25 15:40:00,
2013-11-25 10:45:00,40.5,0.2,30.56,North,0,0.0,0.0,18,0.00,CLR,FEW,0.00,WeatherDisplay:10.37,2013-11-25 15:45:00,
2013-11-25 10:50:00,41.4,0.9,30.56,North,0,0.0,0.0,18,0.00,CLR,FEW,0.00,WeatherDisplay:10.37,2013-11-25 15:50:00,
2013-11-25 10:55:00,41.9,1.4,30.56,North,0,0.0,0.0,18,0.00,CLR,FEW,0.00,WeatherDisplay:10.37,2013-11-25 15:55:00,
2013-11-25 11:00:00,42.1,1.5,30.56,North,0,0.0,0.0,18,0.00,CLR,FEW,0.00,WeatherDisplay:10.37,2013-11-25 16:00:00,
2013-11-25 11:05:00,42.1,1.5,30.56,North,0,0.0,0.0,18,0.00,CLR,FEW,0.00,WeatherDisplay:10.37,2013-11-25 16:05:00,
2013-11-25 11:10:00,41.7,1.2,30.56,North,0,0.0,0.0,18,0.00,CLR,FEW,0.00,WeatherDisplay:10.37,2013-11-25 16:10:00,
2013-11-25 11:15:00,42.1,1.5,30.53,North,0,0.0,0.0,18,0.00,CLR,FEW,0.00,WeatherDisplay:10.37,2013-11-25 16:15:00,
2013-11-25 11:20:00,42.3,1.7,30.53,North,0,0.0,0.0,18,0.00,CLR,FEW,0.00,WeatherDisplay:10.37,2013-11-25 16:20:00,
2013-11-25 11:25:00,42.8,2.1,30.53,North,0,0.0,0.0,18,0.00,CLR,FEW,0.00,WeatherDisplay:10.37,2013-11-25 16:25:00,
2013-11-25 11:30:00,43.5,2.7,30.50,North,0,0.0,0.0,18,0.00,CLR,FEW,0.00,WeatherDisplay:10.37,2013-11-25 16:30:00,
2013-11-25 11:35:00,43.9,3.0,30.50,North,0,0.0,0.0,18,0.00,CLR,FEW,0.00,WeatherDisplay:10.37,2013-11-25 16:35:00,
2013-11-25 11:40:00,43.9,3.0,30.50,North,0,0.0,0.0,18,0.00,CLR,FEW,0.00,WeatherDisplay:10.37,2013-11-25 16:40:00,
2013-11-25 11:45:00,44.4,3.5,30.50,North,0,0.0,0.0,18,0.00,CLR,FEW,0.00,WeatherDisplay:10.37,2013-11-25 16:45:00,
2013-11-25 11:50:00,45.0,2.7,30.50,North,0,0.0,0.0,17,0.00,CLR,FEW,0.00,WeatherDisplay:10.37,2013-11-25 16:50:00,
2013-11-25 11:55:00,45.1,2.8,30.50,North,0,0.0,0.0,17,0.00,CLR,FEW,0.00,WeatherDisplay:10.37,2013-11-25 16:55:00,
2013-11-25 12:00:00,45.1,2.8,30.50,North,0,0.0,0.0,17,0.00,CLR,FEW,0.00,WeatherDisplay:10.37,2013-11-25 17:00:00,
2013-11-25 12:05:00,45.0,2.7,30.50,North,0,0.0,0.0,17,0.00,CLR,FEW,0.00,WeatherDisplay:10.37,2013-11-25 17:05:00,
2013-11-25 12:10:00,44.8,2.5,30.50,North,0,0.0,0.0,17,0.00,CLR,FEW,0.00,WeatherDisplay:10.37,2013-11-25 17:10:00,
2013-11-25 12:15:00,44.6,2.4,30.50,North,0,0.0,0.0,17,0.00,CLR,FEW,0.00,WeatherDisplay:10.37,2013-11-25 17:15:00,
2013-11-25 12:20:00,44.6,2.4,30.50,North,0,0.0,0.0,17,0.00,CLR,FEW,0.00,WeatherDisplay:10.37,2013-11-25 17:20:00,
2013-11-25 12:25:00,44.6,2.4,30.50,North,0,0.0,0.0,17,0.00,CLR,FEW,0.00,WeatherDisplay:10.37,2013-11-25 17:25:00,
2013-11-25 12:30:00,45.1,2.8,30.48,North,0,0.0,0.0,17,0.00,CLR,FEW,0.00,WeatherDisplay:10.37,2013-11-25 17:30:00,
2013-11-25 12:35:00,45.3,3.0,30.48,North,0,0.0,0.0,17,0.00,CLR,FEW,0.00,WeatherDisplay:10.37,2013-11-25 17:35:00,
2013-11-25 12:40:00,45.3,3.0,30.48,North,0,0.0,0.0,17,0.00,CLR,FEW,0.00,WeatherDisplay:10.37,2013-11-25 17:40:00,
2013-11-25 12:45:00,45.7,3.3,30.48,North,0,0.0,0.0,17,0.00,CLR,FEW,0.00,WeatherDisplay:10.37,2013-11-25 17:45:00,
2013-11-25 12:50:00,45.5,3.1,30.48,North,0,0.0,0.0,17,0.00,CLR,FEW,0.00,WeatherDisplay:10.37,2013-11-25 17:50:00,
2013-11-25 12:55:00,45.9,3.4,30.48,North,0,0.0,0.0,17,0.00,CLR,FEW,0.00,WeatherDisplay:10.37,2013-11-25 17:55:00,
2013-11-25 13:00:00,46.0,3.6,30.48,North,0,0.0,0.0,17,0.00,CLR,FEW,0.00,WeatherDisplay:10.37,2013-11-25 18:00:00,
2013-11-25 13:05:00,46.2,3.7,30.48,North,0,0.0,0.0,17,0.00,CLR,FEW,0.00,WeatherDisplay:10.37,2013-11-25 18:05:00,
2013-11-25 13:10:00,46.6,4.0,30.48,North,0,0.0,0.0,17,0.00,CLR,FEW,0.00,WeatherDisplay:10.37,2013-11-25 18:10:00,
2013-11-25 13:15:00,46.8,4.2,30.44,North,0,0.0,0.0,17,0.00,CLR,FEW,0.00,WeatherDisplay:10.37,2013-11-25 18:15:00,
2013-11-25 13:20:00,46.8,4.2,30.44,North,0,0.0,0.0,17,0.00,CLR,FEW,0.00,WeatherDisplay:10.37,2013-11-25 18:20:00,
2013-11-25 13:25:00,46.9,4.3,30.44,North,0,0.0,0.0,17,0.00,CLR,FEW,0.00,WeatherDisplay:10.37,2013-11-25 18:25:00,
2013-11-25 13:30:00,46.8,4.2,30.44,North,0,0.0,0.0,17,0.00,CLR,FEW,0.00,WeatherDisplay:10.37,2013-11-25 18:30:00,
2013-11-25 13:35:00,46.2,3.7,30.44,North,0,0.0,0.0,17,0.00,CLR,FEW,0.00,WeatherDisplay:10.37,2013-11-25 18:35:00,
2013-11-25 13:40:00,46.2,3.7,30.44,North,0,0.0,0.0,17,0.00,CLR,FEW,0.00,WeatherDisplay:10.37,2013-11-25 18:40:00,
2013-11-25 13:45:00,46.0,3.6,30.42,North,0,0.0,0.0,17,0.00,CLR,FEW,0.00,WeatherDisplay:10.37,2013-11-25 18:45:00,
2013-11-25 13:50:00,45.7,3.3,30.42,North,0,0.0,0.0,17,0.00,CLR,FEW,0.00,WeatherDisplay:10.37,2013-11-25 18:50:00,
2013-11-25 13:55:00,46.0,3.6,30.42,North,0,0.0,0.0,17,0.00,CLR,FEW,0.00,WeatherDisplay:10.37,2013-11-25 18:55:00,
2013-11-25 14:00:00,45.9,3.4,30.44,North,0,0.0,0.0,17,0.00,CLR,FEW,0.00,WeatherDisplay:10.37,2013-11-25 19:00:00,
2013-11-25 14:05:00,46.0,3.6,30.44,North,0,0.0,0.0,17,0.00,CLR,FEW,0.00,WeatherDisplay:10.37,2013-11-25 19:05:00,
2013-11-25 14:10:00,46.2,3.7,30.44,North,0,0.0,0.0,17,0.00,CLR,FEW,0.00,WeatherDisplay:10.37,2013-11-25 19:10:00,
2013-11-25 14:15:00,46.4,3.9,30.42,North,0,0.0,0.0,17,0.00,CLR,FEW,0.00,WeatherDisplay:10.37,2013-11-25 19:15:00,
2013-11-25 14:20:00,46.6,4.0,30.42,North,0,0.0,0.0,17,0.00,CLR,FEW,0.00,WeatherDisplay:10.37,2013-11-25 19:20:00,
2013-11-25 14:25:00,46.4,3.9,30.42,North,0,0.0,0.0,17,0.00,CLR,FEW,0.00,WeatherDisplay:10.37,2013-11-25 19:25:00,
2013-11-25 14:30:00,46.6,4.0,30.42,North,0,0.0,0.0,17,0.00,CLR,FEW,0.00,WeatherDisplay:10.37,2013-11-25 19:30:00,
2013-11-25 14:35:00,46.6,4.0,30.42,North,0,0.0,0.0,17,0.00,CLR,FEW,0.00,WeatherDisplay:10.37,2013-11-25 19:35:00,
2013-11-25 14:40:00,46.6,4.0,30.42,North,0,0.0,0.0,17,0.00,CLR,FEW,0.00,WeatherDisplay:10.37,2013-11-25 19:40:00,
2013-11-25 14:45:00,46.8,4.2,30.42,North,0,0.0,0.0,17,0.00,CLR,FEW,0.00,WeatherDisplay:10.37,2013-11-25 19:45:00,
2013-11-25 14:50:00,46.9,4.3,30.42,North,0,0.0,0.0,17,0.00,CLR,FEW,0.00,WeatherDisplay:10.37,2013-11-25 19:50:00,
2013-11-25 14:55:00,47.3,4.6,30.42,North,0,0.0,0.0,17,0.00,CLR,FEW,0.00,WeatherDisplay:10.37,2013-11-25 19:55:00,
2013-11-25 15:00:00,47.1,4.5,30.42,North,0,0.0,0.0,17,0.00,CLR,FEW,0.00,WeatherDisplay:10.37,2013-11-25 20:00:00,
2013-11-25 15:05:00,46.9,4.3,30.42,North,0,0.0,0.0,17,0.00,CLR,FEW,0.00,WeatherDisplay:10.37,2013-11-25 20:05:00,
2013-11-25 15:11:00,47.1,4.5,30.42,North,0,0.0,0.0,17,0.00,CLR,FEW,0.00,WeatherDisplay:10.37,2013-11-25 20:11:00,
2013-11-25 15:16:00,47.3,7.0,30.42,North,0,0.0,0.0,19,0.00,CLR,FEW,0.00,WeatherDisplay:10.37,2013-11-25 20:16:00,
2013-11-25 15:21:00,47.1,4.5,30.42,North,0,0.0,0.0,17,0.00,CLR,FEW,0.00,WeatherDisplay:10.37,2013-11-25 20:21:00,
2013-11-25 15:26:00,47.3,7.0,30.42,North,0,0.0,0.0,19,0.00,CLR,FEW,0.00,WeatherDisplay:10.37,2013-11-25 20:26:00,
2013-11-25 15:31:00,47.3,7.0,30.42,North,0,0.0,0.0,19,0.00,CLR,FEW,0.00,WeatherDisplay:10.37,2013-11-25 20:31:00,
2013-11-25 15:36:00,47.3,7.0,30.42,North,0,0.0,0.0,19,0.00,CLR,FEW,0.00,WeatherDisplay:10.37,2013-11-25 20:36:00,
2013-11-25 15:41:00,47.3,7.0,30.42,North,0,0.0,0.0,19,0.00,CLR,FEW,0.00,WeatherDisplay:10.37,2013-11-25 20:41:00,
2013-11-25 15:46:00,47.3,7.0,30.42,North,0,0.0,0.0,19,0.00,CLR,FEW,0.00,WeatherDisplay:10.37,2013-11-25 20:46:00,
2013-11-25 15:51:00,47.3,7.0,30.42,North,0,0.0,0.0,19,0.00,CLR,FEW,0.00,WeatherDisplay:10.37,2013-11-25 20:51:00,
2013-11-25 15:56:00,47.3,7.0,30.42,North,0,0.0,0.0,19,0.00,CLR,FEW,0.00,WeatherDisplay:10.37,2013-11-25 20:56:00,
2013-11-25 16:01:00,47.3,7.0,30.42,North,0,0.0,0.0,19,0.00,CLR,FEW,0.00,WeatherDisplay:10.37,2013-11-25 21:01:00,
2013-11-25 16:06:00,47.3,7.0,30.42,North,0,0.0,0.0,19,0.00,CLR,FEW,0.00,WeatherDisplay:10.37,2013-11-25 21:06:00,
2013-11-25 16:11:00,47.3,7.0,30.42,North,0,0.0,0.0,19,0.00,CLR,FEW,0.00,WeatherDisplay:10.37,2013-11-25 21:11:00,
2013-11-25 16:16:00,47.3,10.3,30.42,North,0,0.0,0.0,22,0.00,CLR,FEW,0.00,WeatherDisplay:10.37,2013-11-25 21:16:00,
2013-11-25 16:21:00,47.1,10.2,30.42,North,0,0.0,0.0,22,0.00,CLR,FEW,0.00,WeatherDisplay:10.37,2013-11-25 21:21:00,
2013-11-25 16:26:00,47.1,10.2,30.42,North,0,0.0,0.0,22,0.00,CLR,FEW,0.00,WeatherDisplay:10.37,2013-11-25 21:26:00,
2013-11-25 16:31:00,47.1,10.2,30.42,North,0,0.0,0.0,22,0.00,CLR,FEW,0.00,WeatherDisplay:10.37,2013-11-25 21:31:00,
2013-11-25 16:36:00,47.1,12.1,30.42,North,0,0.0,0.0,24,0.00,CLR,FEW,0.00,WeatherDisplay:10.37,2013-11-25 21:36:00,
2013-11-25 16:41:00,47.1,14.8,30.42,North,0,0.0,0.0,27,0.00,CLR,FEW,0.00,WeatherDisplay:10.37,2013-11-25 21:41:00,
2013-11-25 16:46:00,47.1,14.8,30.42,North,0,0.0,0.0,27,0.00,CLR,FEW,0.00,WeatherDisplay:10.37,2013-11-25 21:46:00,
2013-11-25 16:51:00,46.9,15.5,30.42,North,0,0.0,0.0,28,0.00,CLR,FEW,0.00,WeatherDisplay:10.37,2013-11-25 21:51:00,
2013-11-25 16:56:00,46.9,17.1,30.42,North,0,0.0,0.0,30,0.00,CLR,FEW,0.00,WeatherDisplay:10.37,2013-11-25 21:56:00,
2013-11-25 17:01:00,46.9,17.8,30.42,North,0,0.0,0.0,31,0.00,CLR,FEW,0.00,WeatherDisplay:10.37,2013-11-25 22:01:00,
2013-11-25 17:06:00,46.9,19.3,30.42,North,0,0.0,0.0,33,0.00,CLR,FEW,0.00,WeatherDisplay:10.37,2013-11-25 22:06:00,
2013-11-25 17:11:00,47.1,21.5,30.42,North,0,0.0,0.0,36,0.00,CLR,FEW,0.00,WeatherDisplay:10.37,2013-11-25 22:11:00,
2013-11-25 17:16:00,47.1,22.1,30.39,North,0,0.0,0.0,37,0.00,CLR,FEW,0.00,WeatherDisplay:10.37,2013-11-25 22:16:00,
2013-11-25 17:21:00,47.3,22.3,30.39,North,0,0.0,0.0,37,0.00,CLR,FEW,0.00,WeatherDisplay:10.37,2013-11-25 22:21:00,
2013-11-25 17:26:00,47.3,22.9,30.39,North,0,0.0,0.0,38,0.00,CLR,FEW,0.00,WeatherDisplay:10.37,2013-11-25 22:26:00,
2013-11-25 17:31:00,47.3,22.9,30.39,North,0,0.0,0.0,38,0.00,CLR,FEW,0.00,WeatherDisplay:10.37,2013-11-25 22:31:00,
2013-11-25 17:36:00,47.3,22.9,30.39,North,0,0.0,0.0,38,0.00,CLR,FEW,0.00,WeatherDisplay:10.37,2013-11-25 22:36:00,
2013-11-25 17:41:00,47.3,22.9,30.39,North,0,0.0,0.0,38,0.00,CLR,FEW,0.00,WeatherDisplay:10.37,2013-11-25 22:41:00,
2013-11-25 17:46:00,47.1,22.8,30.42,North,0,0.0,0.0,38,0.00,CLR,FEW,0.00,WeatherDisplay:10.37,2013-11-25 22:46:00,
2013-11-25 17:51:00,47.1,22.8,30.42,North,0,0.0,0.0,38,0.00,CLR,FEW,0.00,WeatherDisplay:10.37,2013-11-25 22:51:00,
2013-11-25 17:56:00,47.1,22.8,30.42,North,0,0.0,0.0,38,0.00,CLR,FEW,0.00,WeatherDisplay:10.37,2013-11-25 22:56:00,
2013-11-25 18:01:00,47.1,23.4,30.42,North,0,0.0,0.0,39,0.00,CLR,FEW,0.00,WeatherDisplay:10.37,2013-11-25 23:01:00,
2013-11-25 18:06:00,47.1,22.8,30.42,North,0,0.0,0.0,38,0.00,CLR,FEW,0.00,WeatherDisplay:10.37,2013-11-25 23:06:00,
2013-11-25 18:11:00,47.1,23.4,30.42,North,0,0.0,0.0,39,0.00,CLR,FEW,0.00,WeatherDisplay:10.37,2013-11-25 23:11:00,
2013-11-25 18:16:00,46.9,23.2,30.42,North,0,0.0,0.0,39,0.00,CLR,FEW,0.00,WeatherDisplay:10.37,2013-11-25 23:16:00,
2013-11-25 18:21:00,47.1,23.4,30.42,North,0,0.0,0.0,39,0.00,CLR,FEW,0.00,WeatherDisplay:10.37,2013-11-25 23:21:00,
2013-11-25 18:26:00,47.1,23.4,30.42,North,0,0.0,0.0,39,0.00,CLR,FEW,0.00,WeatherDisplay:10.37,2013-11-25 23:26:00,
2013-11-25 18:31:00,47.1,23.4,30.42,North,0,0.0,0.0,39,0.00,CLR,FEW,0.00,WeatherDisplay:10.37,2013-11-25 23:31:00,
2013-11-25 18:36:00,46.6,21.7,30.42,North,0,0.0,0.0,37,0.00,CLR,FEW,0.00,WeatherDisplay:10.37,2013-11-25 23:36:00,
2013-11-25 18:41:00,45.9,17.6,30.42,North,0,0.0,0.0,32,0.00,CLR,FEW,0.00,WeatherDisplay:10.37,2013-11-25 23:41:00,
2013-11-25 18:46:00,45.0,13.8,30.42,North,0,0.0,0.0,28,0.00,CLR,FEW,0.00,WeatherDisplay:10.37,2013-11-25 23:46:00,
2013-11-25 18:51:00,44.2,10.6,30.42,North,0,0.0,0.0,25,0.00,CLR,FEW,0.00,WeatherDisplay:10.37,2013-11-25 23:51:00,
2013-11-25 18:56:00,43.9,10.3,30.42,North,0,0.0,0.0,25,0.00,CLR,FEW,0.00,WeatherDisplay:10.37,2013-11-25 23:56:00,
2013-11-25 19:01:00,43.3,8.0,30.42,North,0,0.0,0.0,23,0.00,CLR,FEW,0.00,WeatherDisplay:10.37,2013-11-26 00:01:00,
2013-11-25 19:06:00,42.8,4.4,30.42,North,0,0.0,0.0,20,0.00,CLR,FEW,0.00,WeatherDisplay:10.37,2013-11-26 00:06:00,
2013-11-25 19:11:00,42.6,7.3,30.42,North,0,0.0,0.0,23,0.00,CLR,FEW,0.00,WeatherDisplay:10.37,2013-11-26 00:11:00,
2013-11-25 19:16:00,42.3,5.0,30.39,North,0,0.0,0.0,21,0.00,CLR,FEW,0.00,WeatherDisplay:10.37,2013-11-26 00:16:00,
2013-11-25 19:21:00,41.9,6.7,30.39,North,0,0.0,0.0,23,0.00,CLR,FEW,0.00,WeatherDisplay:10.37,2013-11-26 00:21:00,
2013-11-25 19:26:00,41.5,6.4,30.39,North,0,0.0,0.0,23,0.00,CLR,FEW,0.00,WeatherDisplay:10.37,2013-11-26 00:26:00,
2013-11-25 19:31:00,41.2,6.1,30.42,North,0,0.0,0.0,23,0.00,CLR,FEW,0.00,WeatherDisplay:10.37,2013-11-26 00:31:00,
2013-11-25 19:36:00,41.0,6.0,30.42,North,0,0.0,0.0,23,0.00,CLR,FEW,0.00,WeatherDisplay:10.37,2013-11-26 00:36:00,
2013-11-25 19:41:00,40.8,5.8,30.42,North,0,0.0,0.0,23,0.00,CLR,FEW,0.00,WeatherDisplay:10.37,2013-11-26 00:41:00,
2013-11-25 19:46:00,40.5,5.5,30.39,North,0,0.0,0.0,23,0.00,CLR,FEW,0.00,WeatherDisplay:10.37,2013-11-26 00:46:00,
2013-11-25 19:51:00,40.5,5.5,30.39,North,0,0.0,0.0,23,0.00,CLR,FEW,0.00,WeatherDisplay:10.37,2013-11-26 00:51:00,
2013-11-25 19:56:00,40.3,5.4,30.39,North,0,0.0,0.0,23,0.00,CLR,FEW,0.00,WeatherDisplay:10.37,2013-11-26 00:56:00,
2013-11-25 20:01:00,40.3,5.4,30.39,North,0,0.0,0.0,23,0.00,CLR,FEW,0.00,WeatherDisplay:10.37,2013-11-26 01:01:00,
2013-11-25 20:06:00,40.5,5.5,30.39,North,0,0.0,0.0,23,0.00,CLR,FEW,0.00,WeatherDisplay:10.37,2013-11-26 01:06:00,
2013-11-25 20:11:00,40.6,5.7,30.39,North,0,0.0,0.0,23,0.00,CLR,FEW,0.00,WeatherDisplay:10.37,2013-11-26 01:11:00,
2013-11-25 20:16:00,41.0,6.0,30.39,North,0,0.0,0.0,23,0.00,CLR,FEW,0.00,WeatherDisplay:10.37,2013-11-26 01:16:00,
2013-11-25 20:21:00,41.2,6.1,30.39,North,0,0.0,0.0,23,0.00,CLR,FEW,0.00,WeatherDisplay:10.37,2013-11-26 01:21:00,
2013-11-25 20:26:00,41.4,6.3,30.39,North,0,0.0,0.0,23,0.00,CLR,FEW,0.00,WeatherDisplay:10.37,2013-11-26 01:26:00,
2013-11-25 20:31:00,41.4,6.3,30.39,North,0,0.0,0.0,23,0.00,CLR,FEW,0.00,WeatherDisplay:10.37,2013-11-26 01:31:00,
2013-11-25 20:36:00,41.5,6.4,30.39,North,0,0.0,0.0,23,0.00,CLR,FEW,0.00,WeatherDisplay:10.37,2013-11-26 01:36:00,
2013-11-25 20:41:00,41.4,6.3,30.39,North,0,0.0,0.0,23,0.00,CLR,FEW,0.00,WeatherDisplay:10.37,2013-11-26 01:41:00,
2013-11-25 20:46:00,41.2,6.1,30.39,North,0,0.0,0.0,23,0.00,CLR,FEW,0.00,WeatherDisplay:10.37,2013-11-26 01:46:00,
2013-11-25 20:51:00,41.0,6.0,30.39,North,0,0.0,0.0,23,0.00,CLR,FEW,0.00,WeatherDisplay:10.37,2013-11-26 01:51:00,
2013-11-25 20:56:00,40.6,5.7,30.39,North,0,0.0,0.0,23,0.00,CLR,FEW,0.00,WeatherDisplay:10.37,2013-11-26 01:56:00,
2013-11-25 21:01:00,40.5,5.5,30.36,North,0,0.0,0.0,23,0.00,CLR,FEW,0.00,WeatherDisplay:10.37,2013-11-26 02:01:00,
2013-11-25 21:06:00,40.5,8.2,30.36,North,0,0.0,0.0,26,0.00,CLR,FEW,0.00,WeatherDisplay:10.37,2013-11-26 02:06:00,
2013-11-25 21:11:00,40.3,9.7,30.36,North,0,0.0,0.0,28,0.00,CLR,FEW,0.00,WeatherDisplay:10.37,2013-11-26 02:11:00,
2013-11-25 21:16:00,40.3,10.5,30.36,North,0,0.0,0.0,29,0.00,CLR,FEW,0.00,WeatherDisplay:10.37,2013-11-26 02:16:00,
2013-11-25 21:21:00,40.1,10.3,30.36,North,0,0.0,0.0,29,0.00,CLR,FEW,0.00,WeatherDisplay:10.37,2013-11-26 02:21:00,
2013-11-25 21:26:00,40.1,10.3,30.36,North,0,0.0,0.0,29,0.00,CLR,FEW,0.00,WeatherDisplay:10.37,2013-11-26 02:26:00,
2013-11-25 21:31:00,39.9,10.9,30.36,North,0,0.0,0.0,30,0.00,CLR,FEW,0.00,WeatherDisplay:10.37,2013-11-26 02:31:00,
2013-11-25 21:36:00,39.9,10.9,30.36,North,0,0.0,0.0,30,0.00,CLR,FEW,0.00,WeatherDisplay:10.37,2013-11-26 02:36:00,
2013-11-25 21:41:00,39.9,10.9,30.36,North,0,0.0,0.0,30,0.00,CLR,FEW,0.00,WeatherDisplay:10.37,2013-11-26 02:41:00,
2013-11-25 21:46:00,39.9,11.7,30.36,North,0,0.0,0.0,31,0.00,CLR,FEW,0.00,WeatherDisplay:10.37,2013-11-26 02:46:00,
2013-11-25 21:51:00,39.9,11.7,30.36,North,0,0.0,0.0,31,0.00,CLR,FEW,0.00,WeatherDisplay:10.37,2013-11-26 02:51:00,
2013-11-25 21:56:00,39.9,12.4,30.36,North,0,0.0,0.0,32,0.00,CLR,FEW,0.00,WeatherDisplay:10.37,2013-11-26 02:56:00,
2013-11-25 22:01:00,39.9,12.4,30.33,North,0,0.0,0.0,32,0.00,CLR,FEW,0.00,WeatherDisplay:10.37,2013-11-26 03:01:00,
2013-11-25 22:06:00,39.9,13.1,30.33,North,0,0.0,0.0,33,0.00,CLR,FEW,0.00,WeatherDisplay:10.37,2013-11-26 03:06:00,
2013-11-25 22:11:00,39.7,13.6,30.33,North,0,0.0,0.0,34,0.00,CLR,FEW,0.00,WeatherDisplay:10.37,2013-11-26 03:11:00,
2013-11-25 22:16:00,39.7,14.3,30.33,North,0,0.0,0.0,35,0.00,CLR,FEW,0.00,WeatherDisplay:10.37,2013-11-26 03:16:00,
2013-11-25 22:21:00,39.7,14.9,30.33,North,0,0.0,0.0,36,0.00,CLR,FEW,0.00,WeatherDisplay:10.37,2013-11-26 03:21:00,
2013-11-25 22:26:00,39.7,14.9,30.33,North,0,0.0,0.0,36,0.00,CLR,FEW,0.00,WeatherDisplay:10.37,2013-11-26 03:26:00,
2013-11-25 22:31:00,39.7,14.3,30.33,North,0,0.0,0.0,35,0.00,CLR,FEW,0.00,WeatherDisplay:10.37,2013-11-26 03:31:00,
2013-11-25 22:36:00,39.7,14.9,30.33,North,0,0.0,0.0,36,0.00,CLR,FEW,0.00,WeatherDisplay:10.37,2013-11-26 03:36:00,
2013-11-25 22:41:00,39.9,15.7,30.33,North,0,0.0,0.0,37,0.00,CLR,FEW,0.00,WeatherDisplay:10.37,2013-11-26 03:41:00,
2013-11-25 22:46:00,39.9,15.7,30.33,North,0,0.0,0.0,37,0.00,CLR,FEW,0.00,WeatherDisplay:10.37,2013-11-26 03:46:00,
2013-11-25 22:51:00,40.1,15.9,30.33,North,0,0.0,0.0,37,0.00,CLR,FEW,0.00,WeatherDisplay:10.37,2013-11-26 03:51:00,
2013-11-25 22:56:00,40.3,16.0,30.33,North,0,0.0,0.0,37,0.00,CLR,FEW,0.00,WeatherDisplay:10.37,2013-11-26 03:56:00,
2013-11-25 23:01:00,40.3,16.7,30.30,North,0,0.0,0.0,38,0.00,CLR,FEW,0.00,WeatherDisplay:10.37,2013-11-26 04:01:00,
2013-11-25 23:06:00,40.3,16.7,30.30,North,0,0.0,0.0,38,0.00,CLR,FEW,0.00,WeatherDisplay:10.37,2013-11-26 04:06:00,
2013-11-25 23:11:00,40.3,16.7,30.30,North,0,0.0,0.0,38,0.00,CLR,FEW,0.00,WeatherDisplay:10.37,2013-11-26 04:11:00,
2013-11-25 23:16:00,40.3,16.7,30.30,North,0,0.0,0.0,38,0.00,CLR,FEW,0.00,WeatherDisplay:10.37,2013-11-26 04:16:00,
2013-11-25 23:21:00,40.3,17.3,30.30,North,0,0.0,0.0,39,0.00,CLR,FEW,0.00,WeatherDisplay:10.37,2013-11-26 04:21:00,
2013-11-25 23:26:00,40.5,17.4,30.30,North,0,0.0,0.0,39,0.00,CLR,FEW,0.00,WeatherDisplay:10.37,2013-11-26 04:26:00,
2013-11-25 23:31:00,40.8,17.7,30.27,North,0,0.0,0.0,39,0.00,CLR,FEW,0.00,WeatherDisplay:10.37,2013-11-26 04:31:00,
2013-11-25 23:36:00,41.4,18.2,30.27,North,0,0.0,0.0,39,0.00,CLR,FEW,0.00,WeatherDisplay:10.37,2013-11-26 04:36:00,
2013-11-25 23:41:00,41.7,19.1,30.27,North,0,0.0,0.0,40,0.00,CLR,FEW,0.00,WeatherDisplay:10.37,2013-11-26 04:41:00,
2013-11-25 23:46:00,42.3,19.6,30.27,North,0,0.0,0.0,40,0.00,CLR,FEW,0.00,WeatherDisplay:10.37,2013-11-26 04:46:00,
2013-11-25 23:51:00,42.6,20.5,30.27,North,0,0.0,0.0,41,0.00,CLR,FEW,0.00,WeatherDisplay:10.37,2013-11-26 04:51:00,
2013-11-25 23:56:00,43.0,20.9,30.27,North,0,0.0,0.0,41,0.00,CLR,FEW,0.00,WeatherDisplay:10.37,2013-11-26 04:56:00,